Time,TemperatureF,DewpointF,PressureIn,WindDirection,WindDirectionDegrees,WindSpeedMPH,WindSpeedGustMPH,Humidity,HourlyPrecipIn,Conditions,Clouds,dailyrainin,SoftwareType,DateUTC
2013-04-12 00:00:00,39.9,31.3,29.81,West,264,4.0,12.0,71,0.00,,OVC033,0.00,VWS V14.00,2013-04-12 05:00:00,
2013-04-12 00:05:00,39.6,31.0,29.81,West,273,3.0,12.0,71,0.00,,SCT033,0.00,VWS V14.00,2013-04-12 05:05:00,
2013-04-12 00:10:00,39.4,31.1,29.81,West,261,4.0,12.0,72,0.00,,SCT033,0.00,VWS V14.00,2013-04-12 05:10:00,
2013-04-12 00:14:00,39.2,31.0,29.81,West,278,5.0,12.0,72,0.00,,SCT033,0.00,VWS V14.00,2013-04-12 05:14:00,
2013-04-12 00:19:00,39.1,30.9,29.82,West,267,3.0,12.0,72,0.00,,CLR,0.00,VWS V14.00,2013-04-12 05:19:00,
2013-04-12 00:24:00,38.9,31.0,29.82,West,271,5.0,7.0,73,0.00,,CLR,0.00,VWS V14.00,2013-04-12 05:24:00,
2013-04-12 00:29:00,38.8,30.9,29.82,West,280,2.0,7.0,73,0.00,,CLR,0.00,VWS V14.00,2013-04-12 05:29:00,
2013-04-12 00:30:00,39.0,30.8,29.82,West,273,5.0,12.0,72,0.00,,CLR,0.00,VWS V14.00,2013-04-12 05:30:00,
2013-04-12 00:34:00,38.5,31.0,29.81,West,281,2.0,7.0,74,0.00,,CLR,0.00,VWS V14.00,2013-04-12 05:34:00,
2013-04-12 00:39:00,38.3,30.8,29.82,West,281,4.0,7.0,74,0.00,,CLR,0.00,VWS V14.00,2013-04-12 05:39:00,
2013-04-12 00:45:00,38.3,31.1,29.82,West,277,1.0,7.0,75,0.00,,CLR,0.00,VWS V14.00,2013-04-12 05:45:00,
2013-04-12 00:50:00,38.2,31.3,29.82,West,277,0.0,7.0,76,0.00,,CLR,0.00,VWS V14.00,2013-04-12 05:50:00,
2013-04-12 00:55:00,38.1,31.2,29.82,West,277,3.0,4.0,76,0.00,,CLR,0.00,VWS V14.00,2013-04-12 05:55:00,
2013-04-12 01:00:00,38.0,31.4,29.82,West,277,0.0,4.0,77,0.00,,CLR,0.00,VWS V14.00,2013-04-12 06:00:00,
2013-04-12 01:04:00,37.8,31.6,29.82,West,277,0.0,4.0,78,0.00,,CLR,0.00,VWS V14.00,2013-04-12 06:04:00,
2013-04-12 01:09:00,37.5,31.3,29.82,West,277,0.0,4.0,78,0.00,,CLR,0.00,VWS V14.00,2013-04-12 06:09:00,
2013-04-12 01:14:00,37.1,31.2,29.82,West,277,0.0,4.0,79,0.00,,CLR,0.00,VWS V14.00,2013-04-12 06:14:00,
2013-04-12 01:19:00,36.8,30.9,29.82,West,277,0.0,4.0,79,0.00,,CLR,0.00,VWS V14.00,2013-04-12 06:19:00,
2013-04-12 01:24:00,36.5,30.9,29.82,West,277,0.0,4.0,80,0.00,,CLR,0.00,VWS V14.00,2013-04-12 06:24:00,
2013-04-12 01:29:00,36.3,31.0,29.81,West,277,2.0,4.0,81,0.00,,CLR,0.00,VWS V14.00,2013-04-12 06:29:00,
2013-04-12 01:30:00,36.8,30.9,29.82,West,277,0.0,4.0,79,0.00,,CLR,0.00,VWS V14.00,2013-04-12 06:30:00,
2013-04-12 01:34:00,36.2,31.2,29.82,West,277,0.0,4.0,82,0.00,,CLR,0.00,VWS V14.00,2013-04-12 06:34:00,
2013-04-12 01:39:00,36.1,31.1,29.81,West,277,3.0,4.0,82,0.00,,CLR,0.00,VWS V14.00,2013-04-12 06:39:00,
2013-04-12 01:44:00,36.0,31.0,29.81,West,277,3.0,4.0,82,0.00,,CLR,0.00,VWS V14.00,2013-04-12 06:44:00,
2013-04-12 01:49:00,36.0,31.4,29.81,West,277,0.0,4.0,83,0.00,,CLR,0.00,VWS V14.00,2013-04-12 06:49:00,
2013-04-12 01:54:00,36.1,32.0,29.82,West,277,0.0,2.0,85,0.00,,CLR,0.00,VWS V14.00,2013-04-12 06:54:00,
2013-04-12 01:59:00,36.0,32.5,29.82,West,277,0.0,2.0,87,0.00,,CLR,0.00,VWS V14.00,2013-04-12 06:59:00,
2013-04-12 02:00:00,36.0,31.4,29.81,West,277,2.0,4.0,83,0.00,,CLR,0.00,VWS V14.00,2013-04-12 07:00:00,
2013-04-12 02:04:00,35.8,32.6,29.82,West,277,0.0,2.0,88,0.00,,CLR,0.00,VWS V14.00,2013-04-12 07:04:00,
2013-04-12 02:09:00,35.6,32.1,29.82,West,277,1.0,2.0,87,0.00,,CLR,0.00,VWS V14.00,2013-04-12 07:09:00,
2013-04-12 02:14:00,35.6,31.5,29.82,West,277,3.0,5.0,85,0.00,,CLR,0.00,VWS V14.00,2013-04-12 07:14:00,
2013-04-12 02:19:00,35.9,31.8,29.81,West,277,1.0,5.0,85,0.00,,CLR,0.00,VWS V14.00,2013-04-12 07:19:00,
2013-04-12 02:24:00,36.0,31.6,29.81,West,277,1.0,4.0,84,0.00,,CLR,0.00,VWS V14.00,2013-04-12 07:24:00,
2013-04-12 02:29:00,36.1,31.7,29.81,West,277,0.0,4.0,84,0.00,,CLR,0.00,VWS V14.00,2013-04-12 07:29:00,
2013-04-12 02:30:00,35.9,31.5,29.81,West,277,2.0,5.0,84,0.00,,CLR,0.00,VWS V14.00,2013-04-12 07:30:00,
2013-04-12 02:34:00,36.1,32.0,29.81,West,277,0.0,4.0,85,0.00,,CLR,0.00,VWS V14.00,2013-04-12 07:34:00,
2013-04-12 02:39:00,36.0,31.6,29.81,West,277,0.0,4.0,84,0.00,,CLR,0.00,VWS V14.00,2013-04-12 07:39:00,
2013-04-12 02:44:00,36.0,31.6,29.81,West,277,0.0,4.0,84,0.00,,CLR,0.00,VWS V14.00,2013-04-12 07:44:00,
2013-04-12 02:49:00,36.1,31.7,29.80,West,277,2.0,3.0,84,0.00,,CLR,0.00,VWS V14.00,2013-04-12 07:49:00,
2013-04-12 02:54:00,36.1,31.7,29.80,West,277,3.0,3.0,84,0.00,,CLR,0.00,VWS V14.00,2013-04-12 07:54:00,
2013-04-12 02:59:00,35.9,31.5,29.81,West,277,3.0,5.0,84,0.00,,CLR,0.00,VWS V14.00,2013-04-12 07:59:00,
2013-04-12 03:00:00,36.1,31.7,29.80,West,277,1.0,3.0,84,0.00,,SCT060,0.00,VWS V14.00,2013-04-12 08:00:00,
2013-04-12 03:04:00,35.7,31.4,29.80,West,277,0.0,5.0,84,0.00,,CLR,0.00,VWS V14.00,2013-04-12 08:04:00,
2013-04-12 03:09:00,35.7,31.4,29.81,West,277,0.0,5.0,84,0.00,,CLR,0.00,VWS V14.00,2013-04-12 08:09:00,
2013-04-12 03:14:00,35.7,31.4,29.80,West,277,0.0,5.0,84,0.00,,CLR,0.00,VWS V14.00,2013-04-12 08:14:00,
2013-04-12 03:19:00,35.9,31.5,29.81,West,277,2.0,5.0,84,0.00,,SCT050,0.00,VWS V14.00,2013-04-12 08:19:00,
2013-04-12 03:24:00,36.0,31.9,29.81,West,275,3.0,4.0,85,0.00,,SCT050,0.00,VWS V14.00,2013-04-12 08:24:00,
2013-04-12 03:29:00,36.1,32.0,29.81,West,275,1.0,4.0,85,0.00,,SCT050,0.00,VWS V14.00,2013-04-12 08:29:00,
2013-04-12 03:30:00,35.9,31.5,29.81,West,277,2.0,5.0,84,0.00,,SCT060,0.00,VWS V14.00,2013-04-12 08:30:00,
2013-04-12 03:34:00,36.1,32.3,29.81,West,275,0.0,4.0,86,0.00,,SCT050,0.00,VWS V14.00,2013-04-12 08:34:00,
2013-04-12 03:39:00,36.1,32.0,29.80,West,275,2.0,4.0,85,0.00,,BKN050,0.00,VWS V14.00,2013-04-12 08:39:00,
2013-04-12 03:44:00,36.2,32.7,29.81,West,275,0.0,4.0,87,0.00,,BKN050,0.00,VWS V14.00,2013-04-12 08:44:00,
2013-04-12 03:49:00,36.4,32.6,29.81,West,275,0.0,4.0,86,0.00,,BKN050,0.00,VWS V14.00,2013-04-12 08:49:00,
2013-04-12 03:54:00,36.5,32.7,29.81,West,275,0.0,1.0,86,0.00,,BKN050,0.00,VWS V14.00,2013-04-12 08:54:00,
2013-04-12 03:59:00,36.6,32.8,29.81,West,275,1.0,1.0,86,0.00,,OVC050,0.00,VWS V14.00,2013-04-12 08:59:00,
2013-04-12 04:00:00,36.5,32.7,29.81,West,275,0.0,4.0,86,0.00,,SCT060,0.00,VWS V14.00,2013-04-12 09:00:00,
2013-04-12 04:04:00,36.9,32.8,29.81,West,275,0.0,2.0,85,0.00,,OVC050,0.00,VWS V14.00,2013-04-12 09:04:00,
2013-04-12 04:09:00,37.2,32.8,29.81,West,267,1.0,6.0,84,0.00,,OVC050,0.00,VWS V14.00,2013-04-12 09:09:00,
2013-04-12 04:14:00,37.4,33.0,29.81,West,267,0.0,6.0,84,0.00,,OVC050,0.00,VWS V14.00,2013-04-12 09:14:00,
2013-04-12 04:19:00,37.6,33.2,29.82,West,267,1.0,6.0,84,0.00,,OVC046,0.00,VWS V14.00,2013-04-12 09:19:00,
2013-04-12 04:24:00,37.7,33.6,29.82,West,267,2.0,3.0,85,0.00,,OVC046,0.00,VWS V14.00,2013-04-12 09:24:00,
2013-04-12 04:29:00,37.9,33.2,29.82,West,267,0.0,4.0,83,0.00,,OVC046,0.00,VWS V14.00,2013-04-12 09:29:00,
2013-04-12 04:30:00,37.7,33.6,29.82,West,267,1.0,6.0,85,0.00,,SCT060,0.00,VWS V14.00,2013-04-12 09:30:00,
2013-04-12 04:34:00,38.0,33.3,29.82,West,267,0.0,4.0,83,0.00,,OVC046,0.00,VWS V14.00,2013-04-12 09:34:00,
2013-04-12 04:39:00,38.0,33.3,29.82,West,271,3.0,4.0,83,0.00,,OVC049,0.00,VWS V14.00,2013-04-12 09:39:00,
2013-04-12 04:44:00,38.0,33.3,29.82,WSW,239,2.0,5.0,83,0.00,,OVC049,0.00,VWS V14.00,2013-04-12 09:44:00,
2013-04-12 04:49:00,38.1,33.1,29.82,WSW,240,3.0,5.0,82,0.00,,OVC049,0.00,VWS V14.00,2013-04-12 09:49:00,
2013-04-12 04:54:00,38.3,33.3,29.83,SW,220,0.0,5.0,82,0.00,,OVC049,0.00,VWS V14.00,2013-04-12 09:54:00,
2013-04-12 04:59:00,38.2,33.2,29.83,WSW,248,1.0,6.0,82,0.00,,SCT049,0.00,VWS V14.00,2013-04-12 09:59:00,
2013-04-12 05:00:00,38.2,33.2,29.82,SW,231,5.0,5.0,82,0.00,,SCT060,0.00,VWS V14.00,2013-04-12 10:00:00,
2013-04-12 05:04:00,38.2,33.2,29.83,WSW,254,4.0,6.0,82,0.00,,SCT049,0.00,VWS V14.00,2013-04-12 10:04:00,
2013-04-12 05:09:00,38.1,33.1,29.83,WSW,253,4.0,7.0,82,0.00,,SCT049,0.00,VWS V14.00,2013-04-12 10:09:00,
2013-04-12 05:14:00,38.0,33.0,29.83,WSW,256,5.0,7.0,82,0.00,,SCT049,0.00,VWS V14.00,2013-04-12 10:14:00,
2013-04-12 05:19:00,38.0,33.3,29.83,SW,226,3.0,7.0,83,0.00,,CLR,0.00,VWS V14.00,2013-04-12 10:19:00,
2013-04-12 05:24:00,37.9,32.9,29.83,SW,226,4.0,4.0,82,0.00,,CLR,0.00,VWS V14.00,2013-04-12 10:24:00,
2013-04-12 05:29:00,37.8,32.8,29.83,WSW,249,1.0,6.0,82,0.00,,CLR,0.00,VWS V14.00,2013-04-12 10:29:00,
2013-04-12 05:30:00,38.0,33.3,29.83,SW,226,4.0,7.0,83,0.00,,SCT060,0.00,VWS V14.00,2013-04-12 10:30:00,
2013-04-12 05:34:00,37.7,33.0,29.84,WSW,242,3.0,6.0,83,0.00,,CLR,0.00,VWS V14.00,2013-04-12 10:34:00,
2013-04-12 05:39:00,37.5,32.8,29.84,WSW,244,2.0,6.0,83,0.00,,CLR,0.00,VWS V14.00,2013-04-12 10:39:00,
2013-04-12 05:44:00,37.4,32.7,29.84,SW,236,3.0,6.0,83,0.00,,CLR,0.00,VWS V14.00,2013-04-12 10:44:00,
2013-04-12 05:49:00,37.3,32.6,29.84,WSW,248,2.0,6.0,83,0.00,,CLR,0.00,VWS V14.00,2013-04-12 10:49:00,
2013-04-12 05:54:00,37.3,32.6,29.84,West,263,5.0,5.0,83,0.00,,CLR,0.00,VWS V14.00,2013-04-12 10:54:00,
2013-04-12 05:59:00,37.4,32.7,29.84,SW,226,2.0,7.0,83,0.00,,CLR,0.00,VWS V14.00,2013-04-12 10:59:00,
2013-04-12 06:00:00,37.3,32.6,29.84,SW,232,2.0,6.0,83,0.00,,SCT060,0.00,VWS V14.00,2013-04-12 11:00:00,
2013-04-12 06:04:00,37.4,32.4,29.84,WSW,245,6.0,8.0,82,0.00,,CLR,0.00,VWS V14.00,2013-04-12 11:04:00,
2013-04-12 06:09:00,37.3,32.3,29.84,SW,236,2.0,8.0,82,0.00,,CLR,0.00,VWS V14.00,2013-04-12 11:09:00,
2013-04-12 06:14:00,37.3,32.6,29.85,SW,236,2.0,8.0,83,0.00,,CLR,0.00,VWS V14.00,2013-04-12 11:14:00,
2013-04-12 06:19:00,37.2,32.5,29.85,WSW,251,3.0,8.0,83,0.00,,CLR,0.00,VWS V14.00,2013-04-12 11:19:00,
2013-04-12 06:24:00,37.1,32.4,29.85,WSW,251,2.0,3.0,83,0.00,,CLR,0.00,VWS V14.00,2013-04-12 11:24:00,
2013-04-12 06:29:00,37.1,32.4,29.86,WSW,240,2.0,6.0,83,0.00,,CLR,0.00,VWS V14.00,2013-04-12 11:29:00,
2013-04-12 06:30:00,37.2,32.5,29.85,WSW,251,2.0,8.0,83,0.00,,SCT060,0.00,VWS V14.00,2013-04-12 11:30:00,
2013-04-12 06:34:00,37.1,32.4,29.86,SW,217,1.0,6.0,83,0.00,,CLR,0.00,VWS V14.00,2013-04-12 11:34:00,
2013-04-12 06:39:00,37.0,32.3,29.86,WSW,247,3.0,6.0,83,0.00,,CLR,0.00,VWS V14.00,2013-04-12 11:39:00,
2013-04-12 06:44:00,36.9,32.5,29.86,SSW,211,3.0,7.0,84,0.00,,CLR,0.00,VWS V14.00,2013-04-12 11:44:00,
2013-04-12 06:49:00,36.9,32.5,29.87,SW,227,3.0,7.0,84,0.00,,CLR,0.00,VWS V14.00,2013-04-12 11:49:00,
2013-04-12 06:54:00,36.9,32.5,29.87,WSW,257,5.0,5.0,84,0.00,,CLR,0.00,VWS V14.00,2013-04-12 11:54:00,
2013-04-12 06:59:00,37.0,32.3,29.87,SW,236,1.0,5.0,83,0.00,,CLR,0.00,VWS V14.00,2013-04-12 11:59:00,
2013-04-12 07:00:00,36.9,32.5,29.87,WSW,243,4.0,7.0,84,0.00,,SCT060,0.00,VWS V14.00,2013-04-12 12:00:00,
2013-04-12 07:04:00,37.1,32.4,29.87,SW,233,7.0,8.0,83,0.00,,SCT060,0.00,VWS V14.00,2013-04-12 12:04:00,
2013-04-12 07:09:00,37.2,32.5,29.87,SW,223,3.0,8.0,83,0.00,,SCT060,0.00,VWS V14.00,2013-04-12 12:09:00,
2013-04-12 07:14:00,37.4,32.7,29.88,WSW,238,4.0,8.0,83,0.00,,SCT060,0.00,VWS V14.00,2013-04-12 12:14:00,
2013-04-12 07:19:00,37.6,32.9,29.88,WSW,244,0.0,8.0,83,0.00,,SCT060,0.00,VWS V14.00,2013-04-12 12:19:00,
2013-04-12 07:24:00,37.7,33.0,29.88,WSW,239,3.0,5.0,83,0.00,,SCT060,0.00,VWS V14.00,2013-04-12 12:24:00,
2013-04-12 07:29:00,37.8,33.1,29.88,West,261,4.0,7.0,83,0.00,,SCT060,0.00,VWS V14.00,2013-04-12 12:29:00,
2013-04-12 07:30:00,37.7,33.0,29.88,WSW,248,3.0,8.0,83,0.00,,SCT060,0.00,VWS V14.00,2013-04-12 12:30:00,
2013-04-12 08:00:00,38.2,32.6,29.89,WSW,248,4.0,12.0,80,0.00,,SCT060,0.00,VWS V14.00,2013-04-12 13:00:00,
2013-04-12 08:30:00,40.0,33.1,29.89,WSW,248,6.0,12.0,76,0.00,,SCT060,0.00,VWS V14.00,2013-04-12 13:30:00,
2013-04-12 09:00:00,41.3,33.0,29.89,SW,225,7.0,18.0,72,0.00,,SCT060,0.00,VWS V14.00,2013-04-12 14:00:00,
2013-04-12 09:30:00,42.0,32.6,29.89,WSW,248,9.0,16.0,69,0.00,,SCT060,0.00,VWS V14.00,2013-04-12 14:30:00,
2013-04-12 10:00:00,42.2,33.5,29.90,WSW,248,10.0,19.0,71,0.00,,SCT060,0.00,VWS V14.00,2013-04-12 15:00:00,
2013-04-12 10:30:00,42.9,32.3,29.91,West,270,10.0,21.0,66,0.00,,SCT060,0.00,VWS V14.00,2013-04-12 15:30:00,
2013-04-12 11:00:00,43.3,33.1,29.92,WSW,248,9.0,20.0,67,0.00,,SCT060,0.00,VWS V14.00,2013-04-12 16:00:00,
2013-04-12 11:30:00,43.5,32.9,29.93,WSW,248,9.0,20.0,66,0.00,,SCT060,0.00,VWS V14.00,2013-04-12 16:30:00,
2013-04-12 12:00:00,43.1,32.5,29.95,West,270,9.0,17.0,66,0.00,,SCT060,0.00,VWS V14.00,2013-04-12 17:00:00,
2013-04-12 12:30:00,43.7,32.3,29.95,West,270,8.0,17.0,64,0.00,,SCT060,0.00,VWS V14.00,2013-04-12 17:30:00,
2013-04-12 13:00:00,44.3,32.9,29.95,West,270,8.0,18.0,64,0.00,,SCT060,0.00,VWS V14.00,2013-04-12 18:00:00,
2013-04-12 13:30:00,44.7,32.5,29.96,WSW,248,10.0,21.0,62,0.00,,SCT060,0.00,VWS V14.00,2013-04-12 18:30:00,
2013-04-12 14:00:00,45.4,32.8,29.98,West,270,9.0,19.0,61,0.00,,SCT060,0.00,VWS V14.00,2013-04-12 19:00:00,
2013-04-12 14:30:00,45.3,33.5,29.99,West,270,9.0,20.0,63,0.00,,SCT060,0.00,VWS V14.00,2013-04-12 19:30:00,
2013-04-12 15:00:00,46.2,33.9,29.99,West,270,10.0,23.0,62,0.00,,SCT060,0.00,VWS V14.00,2013-04-12 20:00:00,
2013-04-12 15:33:00,46.2,33.9,29.99,West,270,10.0,23.0,62,0.00,,SCT060,0.00,VWS V14.00,2013-04-12 20:33:00,
2013-04-12 15:38:00,47.8,33.8,30.00,WNW,302,7.0,22.0,58,0.00,,BKN044,0.00,VWS V14.00,2013-04-12 20:38:00,
2013-04-12 15:43:00,47.0,33.8,30.01,West,279,10.0,22.0,60,0.00,,SCT100,0.00,VWS V14.00,2013-04-12 20:43:00,
2013-04-12 15:48:00,47.0,34.7,30.01,West,277,5.0,22.0,62,0.00,,SCT100,0.00,VWS V14.00,2013-04-12 20:48:00,
2013-04-12 15:53:00,47.1,33.5,30.01,WSW,238,6.0,14.0,59,0.00,,SCT100,0.00,VWS V14.00,2013-04-12 20:53:00,
2013-04-12 15:58:00,48.0,36.0,30.01,West,277,8.0,16.0,63,0.00,,SCT100,0.00,VWS V14.00,2013-04-12 20:58:00,
2013-04-12 16:00:00,47.3,35.0,30.01,WSW,246,6.0,22.0,62,0.00,,CLR,0.00,VWS V14.00,2013-04-12 21:00:00,
2013-04-12 16:03:00,48.3,33.8,30.01,West,273,15.0,16.0,57,0.00,,BKN042,0.00,VWS V14.00,2013-04-12 21:03:00,
2013-04-12 16:08:00,47.9,34.3,30.01,West,262,12.0,16.0,59,0.00,,BKN042,0.00,VWS V14.00,2013-04-12 21:08:00,
2013-04-12 16:13:00,46.4,32.9,30.01,West,269,6.0,19.0,59,0.00,,BKN042,0.00,VWS V14.00,2013-04-12 21:13:00,
2013-04-12 16:18:00,47.0,34.3,30.01,WNW,303,12.0,19.0,61,0.00,,BKN042,0.00,VWS V14.00,2013-04-12 21:18:00,
2013-04-12 16:23:00,47.6,34.0,30.01,West,270,10.0,19.0,59,0.00,,BKN042,0.00,VWS V14.00,2013-04-12 21:23:00,
2013-04-12 16:28:00,47.9,35.9,30.01,WSW,240,6.0,19.0,63,0.00,,BKN042,0.00,VWS V14.00,2013-04-12 21:28:00,
2013-04-12 16:30:00,47.3,34.5,30.01,NW,309,4.0,19.0,61,0.00,,CLR,0.00,VWS V14.00,2013-04-12 21:30:00,
2013-04-12 16:33:00,48.1,34.5,30.02,WSW,253,10.0,19.0,59,0.00,,BKN042,0.00,VWS V14.00,2013-04-12 21:33:00,
2013-04-12 16:38:00,47.0,33.0,30.02,West,272,7.0,19.0,58,0.00,,SCT042,0.00,VWS V14.00,2013-04-12 21:38:00,
2013-04-12 16:43:00,46.9,34.6,30.02,West,269,6.0,20.0,62,0.00,,SCT042,0.00,VWS V14.00,2013-04-12 21:43:00,
2013-04-12 16:48:00,47.8,34.2,30.02,West,272,7.0,20.0,59,0.00,,SCT042,0.00,VWS V14.00,2013-04-12 21:48:00,
2013-04-12 16:53:00,47.7,33.7,30.02,West,273,6.0,10.0,58,0.00,,SCT042,0.00,VWS V14.00,2013-04-12 21:53:00,
2013-04-12 16:58:00,47.8,34.2,30.02,WSW,245,5.0,15.0,59,0.00,,SCT042,0.00,VWS V14.00,2013-04-12 21:58:00,
2013-04-12 17:00:00,47.8,33.3,30.02,NW,317,8.0,20.0,57,0.00,,CLR,0.00,VWS V14.00,2013-04-12 22:00:00,
2013-04-12 17:03:00,47.2,33.2,30.03,WNW,285,6.0,16.0,58,0.00,,BKN042,0.00,VWS V14.00,2013-04-12 22:03:00,
2013-04-12 17:08:00,45.8,32.3,30.03,West,272,8.0,16.0,59,0.00,,BKN042,0.00,VWS V14.00,2013-04-12 22:08:00,
2013-04-12 17:13:00,45.3,33.1,30.03,WNW,288,5.0,16.0,62,0.00,,BKN042,0.00,VWS V14.00,2013-04-12 22:13:00,
2013-04-12 17:18:00,44.9,32.3,30.03,West,277,9.0,20.0,61,0.00,,BKN042,0.00,VWS V14.00,2013-04-12 22:18:00,
2013-04-12 17:23:00,44.6,32.4,30.03,West,272,7.0,11.0,62,0.00,,OVC042,0.00,VWS V14.00,2013-04-12 22:23:00,
2013-04-12 17:28:00,44.6,34.0,30.03,West,264,6.0,14.0,66,0.00,,OVC042,0.00,VWS V14.00,2013-04-12 22:28:00,
2013-04-12 17:30:00,44.7,32.5,30.03,West,273,11.0,20.0,62,0.00,,CLR,0.00,VWS V14.00,2013-04-12 22:30:00,
2013-04-12 17:33:00,44.5,32.7,30.03,West,279,4.0,17.0,63,0.00,,OVC042,0.00,VWS V14.00,2013-04-12 22:33:00,
2013-04-12 17:38:00,44.5,33.1,30.04,West,281,10.0,17.0,64,0.00,,OVC040,0.00,VWS V14.00,2013-04-12 22:38:00,
2013-04-12 17:43:00,44.5,32.7,30.04,West,273,4.0,17.0,63,0.00,,OVC040,0.00,VWS V14.00,2013-04-12 22:43:00,
2013-04-12 17:48:00,44.8,33.4,30.04,WNW,302,5.0,17.0,64,0.00,,OVC040,0.00,VWS V14.00,2013-04-12 22:48:00,
2013-04-12 17:53:00,44.8,32.6,30.04,NW,317,3.0,11.0,62,0.00,,OVC040,0.00,VWS V14.00,2013-04-12 22:53:00,
2013-04-12 17:58:00,44.6,32.8,30.04,West,271,9.0,13.0,63,0.00,,OVC040,0.00,VWS V14.00,2013-04-12 22:58:00,
2013-04-12 18:00:00,44.9,33.1,30.04,WNW,288,10.0,17.0,63,0.00,,CLR,0.00,VWS V14.00,2013-04-12 23:00:00,
2013-04-12 18:03:00,44.5,33.1,30.04,NNE,15,6.0,15.0,64,0.00,,OVC040,0.00,VWS V14.00,2013-04-12 23:03:00,
2013-04-12 18:08:00,44.3,32.9,30.04,NW,313,5.0,15.0,64,0.00,,OVC040,0.00,VWS V14.00,2013-04-12 23:08:00,
2013-04-12 18:13:00,44.1,32.7,30.05,NW,304,4.0,15.0,64,0.00,,OVC040,0.00,VWS V14.00,2013-04-12 23:13:00,
2013-04-12 18:18:00,44.2,33.2,30.05,WSW,253,4.0,15.0,65,0.00,,OVC040,0.00,VWS V14.00,2013-04-12 23:18:00,
2013-04-12 18:23:00,44.1,33.5,30.05,West,277,0.0,7.0,66,0.00,,OVC040,0.00,VWS V14.00,2013-04-12 23:23:00,
2013-04-12 18:28:00,44.1,32.7,30.06,West,280,4.0,11.0,64,0.00,,OVC040,0.00,VWS V14.00,2013-04-12 23:28:00,
2013-04-12 18:30:00,44.2,33.2,30.05,West,271,7.0,15.0,65,0.00,,CLR,0.00,VWS V14.00,2013-04-12 23:30:00,
2013-04-12 18:33:00,43.8,32.0,30.05,WSW,254,9.0,14.0,63,0.00,,OVC040,0.00,VWS V14.00,2013-04-12 23:33:00,
2013-04-12 18:38:00,43.7,32.3,30.06,WNW,282,9.0,14.0,64,0.00,,OVC040,0.00,VWS V14.00,2013-04-12 23:38:00,
2013-04-12 18:43:00,43.6,32.2,30.05,WNW,290,0.0,14.0,64,0.00,,OVC040,0.00,VWS V14.00,2013-04-12 23:43:00,
2013-04-12 18:48:00,43.6,32.6,30.06,West,279,7.0,14.0,65,0.00,,OVC040,0.00,VWS V14.00,2013-04-12 23:48:00,
2013-04-12 18:53:00,43.5,32.5,30.05,West,273,4.0,5.0,65,0.00,,OVC040,0.00,VWS V14.00,2013-04-12 23:53:00,
2013-04-12 18:58:00,43.4,32.8,30.05,WNW,300,6.0,8.0,66,0.00,,OVC040,0.00,VWS V14.00,2013-04-12 23:58:00,
2013-04-12 19:00:00,43.5,32.2,30.05,West,273,4.0,14.0,64,0.00,,CLR,0.00,VWS V14.00,2013-04-13 00:00:00,
2013-04-12 19:03:00,43.4,32.8,30.06,West,280,1.0,9.0,66,0.00,,OVC040,0.00,VWS V14.00,2013-04-13 00:03:00,
2013-04-12 19:08:00,43.3,32.7,30.06,West,274,7.0,11.0,66,0.00,,OVC040,0.00,VWS V14.00,2013-04-13 00:08:00,
2013-04-12 19:13:00,43.4,32.4,30.06,WNW,300,5.0,12.0,65,0.00,,OVC040,0.00,VWS V14.00,2013-04-13 00:13:00,
2013-04-12 19:18:00,43.3,32.7,30.06,West,261,4.0,12.0,66,0.00,,OVC040,0.00,VWS V14.00,2013-04-13 00:18:00,
2013-04-12 19:23:00,43.2,32.6,30.06,West,276,4.0,10.0,66,0.00,,OVC040,0.00,VWS V14.00,2013-04-13 00:23:00,
2013-04-12 19:28:00,43.2,32.6,30.06,WNW,291,5.0,10.0,66,0.00,,OVC040,0.00,VWS V14.00,2013-04-13 00:28:00,
2013-04-12 19:30:00,43.2,32.6,30.06,West,265,3.0,12.0,66,0.00,,CLR,0.00,VWS V14.00,2013-04-13 00:30:00,
2013-04-12 19:33:00,43.2,32.2,30.06,NW,304,4.0,10.0,65,0.00,,OVC040,0.00,VWS V14.00,2013-04-13 00:33:00,
2013-04-12 19:38:00,43.2,32.6,30.06,West,269,5.0,10.0,66,0.00,,OVC040,0.00,VWS V14.00,2013-04-13 00:38:00,
2013-04-12 19:43:00,43.1,32.2,30.06,West,273,3.0,10.0,65,0.00,,OVC040,0.00,VWS V14.00,2013-04-13 00:43:00,
2013-04-12 19:48:00,43.1,32.2,30.07,West,262,7.0,13.0,65,0.00,,OVC040,0.00,VWS V14.00,2013-04-13 00:48:00,
2013-04-12 19:53:00,43.1,32.5,30.07,West,273,5.0,8.0,66,0.00,,OVC040,0.00,VWS V14.00,2013-04-13 00:53:00,
2013-04-12 19:58:00,43.0,32.8,30.06,WNW,296,5.0,10.0,67,0.00,,OVC040,0.00,VWS V14.00,2013-04-13 00:58:00,
2013-04-12 20:00:00,43.1,32.5,30.07,West,259,5.0,13.0,66,0.00,,CLR,0.00,VWS V14.00,2013-04-13 01:00:00,
2013-04-12 20:03:00,43.0,32.8,30.07,West,267,6.0,10.0,67,0.00,,OVC038,0.00,VWS V14.00,2013-04-13 01:03:00,
2013-04-12 20:08:00,43.0,32.1,30.07,WNW,286,4.0,13.0,65,0.00,,OVC038,0.00,VWS V14.00,2013-04-13 01:08:00,
2013-04-12 20:13:00,43.0,32.4,30.08,West,277,1.0,13.0,66,0.00,,OVC038,0.00,VWS V14.00,2013-04-13 01:13:00,
2013-04-12 20:18:00,42.9,32.3,30.08,West,271,7.0,13.0,66,0.00,,OVC038,0.00,VWS V14.00,2013-04-13 01:18:00,
2013-04-12 20:23:00,42.9,32.3,30.08,WNW,282,7.0,9.0,66,0.00,,OVC038,0.00,VWS V14.00,2013-04-13 01:23:00,
2013-04-12 20:28:00,42.9,32.3,30.08,WNW,284,5.0,9.0,66,0.00,,OVC038,0.00,VWS V14.00,2013-04-13 01:28:00,
2013-04-12 20:30:00,42.9,32.3,30.08,West,273,9.0,13.0,66,0.00,,CLR,0.00,VWS V14.00,2013-04-13 01:30:00,
2013-04-12 20:33:00,42.9,32.3,30.08,West,278,3.0,9.0,66,0.00,,OVC038,0.00,VWS V14.00,2013-04-13 01:33:00,
2013-04-12 20:38:00,42.9,32.7,30.09,West,264,1.0,9.0,67,0.00,,OVC038,0.00,VWS V14.00,2013-04-13 01:38:00,
2013-04-12 20:43:00,42.8,32.6,30.09,West,279,5.0,9.0,67,0.00,,OVC038,0.00,VWS V14.00,2013-04-13 01:43:00,
2013-04-12 20:49:00,42.8,33.0,30.09,West,267,6.0,9.0,68,0.00,,OVC038,0.00,VWS V14.00,2013-04-13 01:49:00,
2013-04-12 20:54:00,42.8,33.0,30.09,West,274,3.0,8.0,68,0.00,,OVC038,0.00,VWS V14.00,2013-04-13 01:54:00,
2013-04-12 20:59:00,42.8,33.0,30.09,West,269,4.0,8.0,68,0.00,,OVC038,0.00,VWS V14.00,2013-04-13 01:59:00,
2013-04-12 21:00:00,42.8,33.0,30.09,WNW,282,7.0,9.0,68,0.00,,CLR,0.00,VWS V14.00,2013-04-13 02:00:00,
2013-04-12 21:04:00,42.8,33.3,30.09,West,270,5.0,8.0,69,0.00,,OVC040,0.00,VWS V14.00,2013-04-13 02:04:00,
2013-04-12 21:09:00,42.8,33.3,30.09,West,279,3.0,8.0,69,0.00,,OVC040,0.00,VWS V14.00,2013-04-13 02:09:00,
2013-04-12 21:14:00,42.8,33.3,30.09,West,275,4.0,8.0,69,0.00,,OVC040,0.00,VWS V14.00,2013-04-13 02:14:00,
2013-04-12 21:19:00,42.7,33.2,30.10,West,269,4.0,8.0,69,0.00,,OVC040,0.00,VWS V14.00,2013-04-13 02:19:00,
2013-04-12 21:24:00,42.7,33.6,30.10,NW,317,1.0,5.0,70,0.00,,OVC040,0.00,VWS V14.00,2013-04-13 02:24:00,
2013-04-12 21:29:00,42.7,33.2,30.10,West,272,5.0,7.0,69,0.00,,OVC040,0.00,VWS V14.00,2013-04-13 02:29:00,
2013-04-12 21:30:00,42.8,33.7,30.10,West,267,4.0,10.0,70,0.00,,CLR,0.00,VWS V14.00,2013-04-13 02:30:00,
2013-04-12 21:34:00,42.7,33.2,30.10,West,280,4.0,7.0,69,0.00,,OVC040,0.00,VWS V14.00,2013-04-13 02:34:00,
2013-04-12 21:39:00,42.7,33.6,30.10,West,279,2.0,8.0,70,0.00,,OVC040,0.00,VWS V14.00,2013-04-13 02:39:00,
2013-04-12 21:44:00,42.7,33.6,30.10,West,277,3.0,8.0,70,0.00,,OVC042,0.00,VWS V14.00,2013-04-13 02:44:00,
2013-04-12 21:49:00,42.7,33.6,30.10,North,360,6.0,8.0,70,0.00,,OVC042,0.00,VWS V14.00,2013-04-13 02:49:00,
2013-04-12 21:54:00,42.6,33.5,30.11,West,269,8.0,12.0,70,0.00,,OVC042,0.00,VWS V14.00,2013-04-13 02:54:00,
2013-04-12 21:59:00,42.7,33.6,30.11,WNW,284,6.0,12.0,70,0.00,,OVC042,0.00,VWS V14.00,2013-04-13 02:59:00,
2013-04-12 22:00:00,42.7,34.0,30.10,West,265,3.0,8.0,71,0.00,,CLR,0.00,VWS V14.00,2013-04-13 03:00:00,
2013-04-12 22:04:00,42.6,33.2,30.11,West,269,7.0,12.0,69,0.00,,OVC044,0.00,VWS V14.00,2013-04-13 03:04:00,
2013-04-12 22:09:00,42.6,33.2,30.11,West,267,7.0,12.0,69,0.00,,OVC044,0.00,VWS V14.00,2013-04-13 03:09:00,
2013-04-12 22:14:00,42.5,33.4,30.11,West,273,3.0,12.0,70,0.00,,OVC044,0.00,VWS V14.00,2013-04-13 03:14:00,
2013-04-12 22:19:00,42.5,33.4,30.11,West,263,5.0,12.0,70,0.00,,OVC046,0.00,VWS V14.00,2013-04-13 03:19:00,
2013-04-12 22:24:00,42.5,33.1,30.11,WNW,282,4.0,8.0,69,0.00,,OVC046,0.00,VWS V14.00,2013-04-13 03:24:00,
2013-04-12 22:29:00,42.5,33.4,30.11,WSW,251,1.0,8.0,70,0.00,,OVC046,0.00,VWS V14.00,2013-04-13 03:29:00,
2013-04-12 22:30:00,42.5,33.4,30.11,WSW,250,5.0,12.0,70,0.00,,CLR,0.00,VWS V14.00,2013-04-13 03:30:00,
2013-04-12 22:34:00,42.4,33.3,30.11,West,261,6.0,8.0,70,0.00,,OVC046,0.00,VWS V14.00,2013-04-13 03:34:00,
2013-04-12 22:39:00,42.4,33.3,30.11,West,274,3.0,8.0,70,0.00,,OVC046,0.00,VWS V14.00,2013-04-13 03:39:00,
2013-04-12 22:44:00,42.4,33.3,30.11,West,263,3.0,8.0,70,0.00,,OVC046,0.00,VWS V14.00,2013-04-13 03:44:00,
2013-04-12 22:49:00,42.3,33.2,30.11,West,275,5.0,10.0,70,0.00,,OVC046,0.00,VWS V14.00,2013-04-13 03:49:00,
2013-04-12 22:54:00,42.4,33.3,30.11,WNW,293,6.0,6.0,70,0.00,,OVC046,0.00,VWS V14.00,2013-04-13 03:54:00,
2013-04-12 22:59:00,42.4,33.3,30.12,West,270,5.0,8.0,70,0.00,,OVC046,0.00,VWS V14.00,2013-04-13 03:59:00,
2013-04-12 23:00:00,42.4,33.3,30.12,West,265,4.0,8.0,70,0.00,,OVC044,0.00,VWS V14.00,2013-04-13 04:00:00,
2013-04-12 23:05:00,42.4,33.0,30.12,West,272,3.0,10.0,69,0.00,,OVC044,0.00,VWS V14.00,2013-04-13 04:05:00,
2013-04-12 23:10:00,42.5,33.1,30.11,West,263,6.0,10.0,69,0.00,,OVC044,0.00,VWS V14.00,2013-04-13 04:10:00,
2013-04-12 23:15:00,42.5,33.1,30.11,West,275,3.0,10.0,69,0.00,,OVC044,0.00,VWS V14.00,2013-04-13 04:15:00,
2013-04-12 23:20:00,42.4,33.3,30.11,West,260,7.0,10.0,70,0.00,,OVC044,0.00,VWS V14.00,2013-04-13 04:20:00,
2013-04-12 23:25:00,42.5,33.4,30.11,WSW,257,7.0,8.0,70,0.00,,OVC044,0.00,VWS V14.00,2013-04-13 04:25:00,
2013-04-12 23:30:00,42.4,33.7,30.12,WSW,252,6.0,8.0,71,0.00,,OVC044,0.00,VWS V14.00,2013-04-13 04:30:00,
2013-04-12 23:35:00,42.4,34.0,30.12,WSW,257,4.0,8.0,72,0.00,,OVC044,0.00,VWS V14.00,2013-04-13 04:35:00,
2013-04-12 23:40:00,42.4,34.0,30.12,West,267,3.0,8.0,72,0.00,,OVC042,0.00,VWS V14.00,2013-04-13 04:40:00,
2013-04-12 23:45:00,42.2,33.8,30.13,West,267,5.0,8.0,72,0.00,,OVC042,0.00,VWS V14.00,2013-04-13 04:45:00,
2013-04-12 23:50:00,42.1,33.7,30.13,West,263,4.0,10.0,72,0.00,,OVC042,0.00,VWS V14.00,2013-04-13 04:50:00,
2013-04-12 23:55:00,42.2,33.5,30.13,West,262,4.0,10.0,71,0.00,,OVC042,0.00,VWS V14.00,2013-04-13 04:55:00,